SCP
3 3 4 3 2 1 1 1 1 1 1 1 1 1 1 1 1 3 5 4 3 2 1 1 0 0 0 0 0 0 0 0 0 0 0 0 0 0 0 0 0 0 0
3 3 4 4 2 2 1 1 1 1 1 1 1 1 1 1 1 3 4 3 2 1 1 1 1 1 1 0 0 0 0 0 0 0 0 0 0 0 0 0 0 0 0
3 3 4 4 3 2 2 1 1 1 1 1 1 1 1 1 1 2 2 2 1 1 1 1 1 1 1 0 0 0 0 1 1 0 0 0 0 0 0 0 0 0 0
4 4 5 5 4 3 2 2 1 1 1 1 1 1 1 1 1 1 1 1 1 1 1 1 1 1 1 1 0 0 1 1 1 1 1 1 0 0 0 0 0 0 0
5 5 6 6 5 4 3 2 2 2 1 1 1 1 1 1 1 1 1 1 1 1 1 1 1 1 1 1 1 1 1 1 1 1 1 1 1 0 0 0 0 0 0
5 6 7 7 6 5 4 4 3 3 2 2 1 1 1 1 1 1 1 1 1 1 1 1 1 1 1 1 1 1 1 1 1 1 1 1 1 1 0 0 0 0 0
5 6 7 8 9 9 7 5 5 3 2 2 2 1 1 1 1 1 1 1 1 1 2 2 1 2 2 2 1 1 1 1 1 1 1 1 1 1 1 1 1 1 1
6 6 8 10 12 11 8 6 6 4 3 3 2 2 1 1 1 1 1 1 1 1 2 1 2 2 2 2 2 2 1 1 1 1 1 1 1 1 1 1 1 1 1
7 8 10 12 13 10 7 6 6 5 4 3 2 2 1 1 1 1 1 1 1 1 1 1 1 2 2 2 2 2 1 1 1 1 1 1 1 1 1 1 1 1 1
8 9 11 12 11 8 6 6 7 6 5 4 3 2 2 1 1 1 1 2 2 1 2 2 1 2 2 3 3 2 2 2 1 1 1 1 1 1 1 1 1 1 1
9 10 10 10 8 5 4 5 7 7 5 4 3 3 2 2 2 2 2 2 2 2 2 2 2 2 3 3 3 3 3 2 2 2 2 2 2 1 1 1 1 1 1
8 8 7 6 5 4 4 5 6 7 6 5 5 4 3 2 2 2 2 2 2 2 2 2 2 2 3 4 4 4 3 8 11 7 2 2 2 2 2 1 1 2 2
6 6 5 4 4 4 5 6 7 7 7 7 6 5 3 3 3 2 2 3 3 3 2 2 2 2 3 4 5 5 4 12 20 11 2 2 2 2 2 2 2 2 3
4 4 4 4 4 4 7 10 11 10 9 9 7 6 4 3 3 4 4 4 4 3 3 3 3 3 3 4 5 6 5 9 12 8 3 3 3 3 3 3 3 3 3
3 4 5 4 4 5 8 12 15 14 11 10 9 7 5 4 5 5 5 5 4 4 4 4 3 4 4 5 6 6 5 5 4 4 4 4 4 3 3 3 3 4 4
3 4 5 4 5 5 7 10 14 14 12 11 11 9 7 5 5 5 5 5 5 5 5 5 5 5 5 5 5 5 5 5 5 6 6 6 5 4 3 2 2 3 4
3 4 4 4 5 5 5 7 10 13 13 11 11 11 8 6 5 4 5 5 4 4 5 5 5 5 4 4 3 3 3 4 4 5 6 7 6 5 3 2 2 2 2
3 4 4 4 4 5 6 8 11 13 12 11 12 11 9 6 5 4 4 4 4 4 4 4 4 4 3 3 2 2 2 2 3 3 5 6 7 6 4 2 1 1 1
4 4 4 5 5 5 8 12 13 11 10 10 11 10 8 7 5 4 4 5 5 5 4 4 3 3 2 2 2 2 2 2 2 2 3 4 6 5 4 2 1 1 1
5 5 6 6 5 6 9 11 10 8 6 7 8 8 7 6 5 4 5 6 6 6 6 5 3 3 2 2 1 1 2 2 2 2 2 3 4 4 2 2 1 1 0
7 8 9 9 7 7 9 9 7 5 4 5 6 7 6 6 5 5 5 6 6 7 7 5 3 2 2 1 1 1 1 2 3 3 3 3 3 2 1 1 1 1 0
11 11 11 10 8 7 9 8 6 3 3 4 6 7 7 6 6 6 5 5 6 7 6 3 2 1 1 1 1 1 1 1 2 3 3 3 2 1 0 0 1 1 0
12 11 11 9 7 7 7 7 5 3 3 4 5 7 7 6 5 5 4 3 4 4 4 2 1 1 1 1 0 0 0 1 1 2 3 2 1 1 0 0 0 0 0
11 10 9 8 6 5 5 5 4 4 4 4 5 6 6 5 4 3 2 2 2 2 2 1 1 1 1 0 0 0 0 1 1 1 2 1 1 1 1 1 0 1 1
9 8 7 6 5 4 4 4 4 4 4 4 4 4 4 3 2 2 2 2 2 2 1 1 1 1 1 0 0 0 0 0 1 1 1 1 1 1 2 1 1 1 1
7 6 5 5 4 3 3 4 4 5 4 4 4 3 3 2 2 2 1 1 1 1 1 1 1 1 1 0 0 0 0 0 0 1 1 1 2 2 2 2 1 0 0
Wind_Speed
8 9 9 9 8 6 5 4 4 3 2 2 1 2 2 2 2 3 4 5 5 4 4 3 3 3 3 4 3 2 2 1 1 0 1 2 2 3 3 3 3 4 4
9 9 8 8 8 7 6 5 4 4 3 2 2 2 2 2 2 2 3 4 5 5 4 4 4 3 3 3 3 2 2 2 1 2 0 2 3 3 3 2 3 4 4
13 11 10 9 9 8 7 6 5 4 3 2 2 1 1 1 0 1 2 3 4 5 4 5 4 4 4 3 4 4 4 3 2 2 3 2 2 2 3 3 3 3 3
11 11 11 10 10 9 8 6 5 4 4 3 3 3 2 2 2 2 2 3 4 4 5 5 4 4 3 4 4 4 3 3 2 2 2 3 3 2 2 3 3 3 3
12 12 12 12 11 10 8 6 5 4 3 3 4 3 2 1 1 1 1 1 2 3 4 4 4 4 3 4 4 3 3 3 3 3 2 2 2 2 2 3 3 2 3
11 10 9 9 8 8 7 7 6 5 4 4 3 3 3 2 2 1 1 1 1 2 2 3 3 4 4 4 4 4 4 4 4 3 3 3 3 3 3 3 3 3 3
9 9 9 9 9 9 9 8 7 6 5 4 4 3 3 3 3 2 2 1 1 1 2 2 2 3 3 4 4 4 4 4 4 4 3 3 4 3 3 3 2 3 3
8 9 10 11 11 10 10 8 8 6 5 4 3 3 2 2 2 2 2 2 2 2 2 2 2 2 3 3 3 3 4 3 4 5 4 3 3 3 3 3 3 2 2
9 8 8 8 9 9 10 10 8 6 5 4 4 3 2 2 2 2 2 2 2 2 2 2 2 2 2 2 3 2 3 3 3 4 3 3 2 2 3 3 3 3 3
7 7 7 7 7 8 8 8 7 7 6 6 5 4 3 3 2 2 2 2 2 2 2 2 2 2 2 2 2 2 2 2 3 2 2 2 2 2 2 2 2 3 4
8 7 6 6 6 6 7 7 7 6 6 6 4 4 3 3 3 3 3 2 2 2 3 3 3 2 3 3 2 3 2 2 3 2 2 3 3 2 2 2 2 3 3
6 6 5 5 6 6 6 6 7 7 6 5 5 4 3 3 3 3 3 3 3 3 3 3 2 3 3 3 3 3 3 3 3 3 3 3 2 3 3 2 2 2 3
6 5 5 5 5 5 5 5 6 6 6 5 4 3 3 2 3 3 3 3 3 2 2 2 3 3 3 3 3 4 3 4 4 4 4 4 3 4 3 3 3 2 2
6 6 5 5 5 5 5 4 4 4 5 5 4 4 3 3 3 3 3 3 2 2 3 3 3 3 3 3 3 3 3 3 4 4 4 4 4 5 4 3 3 2 2
6 5 5 4 4 4 3 3 2 3 4 4 4 4 4 3 3 3 2 2 3 3 3 2 3 3 3 4 3 3 3 3 4 4 4 4 5 6 5 3 3 3 2
7 6 5 5 4 4 3 3 2 3 3 4 4 3 3 3 3 3 2 2 2 3 2 3 3 3 4 4 4 3 3 4 4 4 4 4 5 5 5 5 5 5 4
6 6 6 6 5 4 4 3 2 2 3 3 3 2 2 2 3 2 2 2 2 2 2 3 3 4 4 4 4 4 3 4 4 4 3 3 3 3 3 4 5 5 6
6 6 6 5 4 3 2 2 3 2 2 2 2 2 2 2 2 2 2 2 2 2 2 2 3 3 3 3 3 4 3 3 3 4 4 4 3 3 3 3 3 4 4
6 5 5 5 4 4 4 2 2 3 2 2 2 2 2 2 2 3 3 2 2 2 2 2 2 2 3 3 3 3 2 2 3 3 3 3 4 5 4 2 3 3 4
4 4 4 4 5 4 5 4 2 2 2 2 3 3 3 3 3 3 3 2 2 2 2 2 2 2 2 3 3 2 1 2 2 3 3 4 4 4 4 3 3 3 4
5 5 5 4 4 4 4 4 2 3 4 3 2 2 3 3 3 3 2 2 1 1 1 1 1 1 2 2 2 2 1 1 2 2 3 3 4 4 4 4 4 5 4
4 5 5 3 3 4 4 3 2 3 2 2 1 2 2 2 2 2 2 2 2 1 1 1 2 2 2 2 2 3 2 2 2 3 3 3 4 4 4 3 4 4 2
4 3 5 4 2 3 4 3 3 1 1 1 1 1 1 1 2 3 2 1 1 2 1 1 1 2 2 2 3 3 3 3 2 2 3 4 3 2 2 3 2 1 1
3 3 4 4 2 2 2 3 2 1 2 1 1 1 1 1 1 1 2 2 2 2 2 2 1 2 2 2 2 2 2 2 2 2 2 2 2 1 1 1 1 1 1
2 3 4 3 2 2 1 2 2 2 2 2 1 1 1 2 1 1 2 2 3 4 4 3 3 2 2 3 3 2 2 2 2 1 1 1 2 2 2 2 2 1 1
3 3 3 2 2 1 1 2 1 2 2 2 2 2 2 2 2 2 1 2 3 3 5 5 4 3 4 4 3 3 3 3 2 1 0 1 1 1 1 1 2 1 1
Wind_Direction
161 154 154 155 151 150 153 162 158 163 150 148 156 158 184 196 191 199 194 191 191 188 183 189 193 190 188 197 192 181 189 212 180 91 314 298 267 250 241 234 222 222 222
155 161 160 157 159 162 164 168 170 168 170 178 181 182 182 193 194 199 192 196 191 190 192 190 193 190 188 197 197 182 191 228 191 158 124 326 322 298 263 244 227 227 222
166 168 167 168 167 170 171 171 175 172 175 169 141 128 89 43 150 191 200 208 198 196 197 194 190 192 190 196 203 195 193 214 234 191 173 181 238 287 286 255 241 230 222
168 169 170 173 173 176 175 172 172 172 174 164 147 149 166 186 202 193 203 215 204 202 203 197 192 193 188 189 202 198 191 188 226 241 219 202 187 193 275 291 263 245 233
173 172 176 176 174 174 174 171 169 169 172 170 163 158 162 177 167 145 171 222 220 213 207 193 189 192 193 194 199 196 192 190 203 218 225 231 226 200 201 264 285 281 250
172 172 173 166 168 170 169 167 167 173 175 172 170 170 168 158 142 157 182 229 241 224 211 196 195 199 199 198 199 200 203 209 213 219 213 205 209 211 201 229 258 269 270
169 169 167 169 171 172 172 171 170 177 179 175 180 182 182 168 165 181 189 200 214 214 230 215 200 201 204 200 197 203 211 215 218 221 228 226 223 203 194 206 241 257 268
167 175 178 178 177 175 172 170 172 176 176 177 186 181 179 175 182 186 189 197 212 218 223 213 211 213 206 202 200 210 225 222 225 236 236 240 242 214 201 197 200 255 277
163 165 173 177 175 174 172 172 168 171 176 180 177 182 185 183 188 196 200 216 230 226 226 218 222 224 216 208 198 213 231 228 228 236 239 240 252 235 214 206 194 193 245
152 162 167 172 176 173 171 167 166 172 177 184 188 188 198 196 190 184 208 226 240 246 250 241 225 222 217 214 200 219 232 224 238 234 237 247 251 255 244 226 214 201 209
155 161 167 172 169 162 164 170 173 171 179 186 188 188 195 198 194 202 221 227 233 233 239 239 227 224 226 220 214 225 225 228 246 248 236 248 251 251 250 239 225 221 207
149 151 155 152 154 160 163 172 179 181 187 187 185 194 196 194 199 218 231 231 231 229 230 234 231 235 236 227 216 227 231 227 239 245 241 249 254 259 253 244 243 238 219
130 133 137 142 151 154 161 168 179 184 185 182 181 193 197 197 208 225 233 230 229 236 235 226 227 236 239 230 224 222 228 232 235 236 237 246 238 249 254 244 248 249 244
138 141 145 152 155 151 152 162 174 175 171 171 174 189 207 204 208 220 226 225 225 231 237 230 228 233 244 238 227 221 227 240 246 243 238 238 231 238 243 244 240 240 243
143 146 147 152 147 139 134 141 153 167 173 171 174 189 210 211 202 206 216 218 223 234 238 244 251 245 244 239 225 220 227 235 252 256 250 246 246 246 242 243 231 225 228
154 152 148 143 144 141 136 144 151 165 157 166 172 185 195 193 195 204 205 214 225 228 227 235 243 255 263 265 247 231 230 230 236 250 262 261 255 254 251 249 239 218 215
156 160 163 158 163 165 152 158 173 165 155 159 165 170 180 193 206 200 187 207 225 227 234 239 242 251 260 265 259 252 242 240 236 234 246 267 269 265 245 251 256 247 238
155 164 160 152 153 150 135 170 154 133 142 153 167 180 181 198 208 195 204 216 212 220 236 247 251 254 261 258 264 269 257 252 246 237 231 236 251 251 238 227 237 248 253
160 163 161 154 149 145 146 144 121 121 142 177 205 206 196 197 207 210 215 216 210 229 238 251 242 245 270 264 268 280 258 255 262 259 251 239 236 250 230 210 225 255 274
147 159 149 137 144 156 147 132 142 151 183 208 224 216 203 202 213 214 216 217 208 228 243 264 256 243 267 274 268 268 222 246 272 281 270 257 245 241 213 206 210 235 256
148 143 131 137 156 154 136 137 165 210 213 202 215 215 210 212 209 203 206 202 203 223 251 263 281 272 276 288 280 275 222 243 262 268 270 265 262 253 236 221 214 228 237
123 126 127 135 138 138 137 153 214 235 219 196 210 229 225 225 204 191 196 185 178 188 235 247 294 309 299 300 296 289 279 274 243 260 268 268 266 258 242 229 240 248 239
119 120 126 122 118 136 146 171 230 235 192 167 221 249 235 225 184 173 182 177 167 176 209 219 261 296 309 316 314 302 294 296 276 277 292 293 277 253 251 253 260 252 214
124 117 117 123 134 155 159 185 210 192 160 185 223 242 217 229 222 204 193 184 189 186 188 199 221 278 302 316 327 324 317 317 314 315 315 314 311 327 323 313 298 263 226
122 129 135 139 161 177 187 211 203 170 170 193 211 220 225 215 212 225 222 209 221 205 195 200 196 212 264 277 280 271 284 289 276 291 347 6 10 4 350 336 317 310 327
124 121 128 139 165 180 225 245 227 174 169 192 213 214 224 215 199 198 262 281 244 227 208 208 205 223 238 272 289 292 291 290 260 148 181 266 277 271 282 287 300 322 322